Calgary / Springba, Alberta

4:57 AM MST on February 25, 2017 (GMT -0700)
Springbank

Weather History for CYBW - November, 2010

Change the Weather History Date:

Sunday, November 7, 2010

  Actual Average Record
Temperature  
Mean Temperature 40 °F -  
Max Temperature 58 °F 32 °F 68 °F (1999)
Min Temperature 21 °F 13 °F 1 °F (2003)
Degree Days  
Heating Degree Days 26    
Moisture  
Dew Point 31 °F    
Average Humidity 71    
Maximum Humidity 100    
Minimum Humidity 46    
Precipitation  
Precipitation 0.00 in - - ()
Sea Level Pressure  
Sea Level Pressure 29.68 in    
Wind  
Wind Speed 5 mph ()    
Max Wind Speed 18 mph    
Max Gust Speed 24 mph    
Visibility 15.0 miles    
Events      
Averages and records for this station are not official NWS values.
T = Trace of Precipitation, MM = Missing Value Source: Averaged Metar Reports

Daily Weather History Graph

Daily Weather History Graph

Search for Another Location

Airport or City:

Trip Planner

Search our weather history database for the weather conditions in past years. The results will help you decide how hot, cold, wet, or windy it might be!

Date:

Astronomy

Nov. 07, 2010 Rise Set
Actual Time 7:40 AM MST 5:01 PM MST
Civil Twilight 7:04 AM MST 5:36 PM MST
Nautical Twilight 6:25 AM MST 6:16 PM MST
Astronomical Twilight 5:46 AM MST 6:54 PM MST
Moon 9:51 AM MST (11/7) 5:43 PM MST (11/7)
Length of Visible Light 10h 31m
Length of Day
9h 20m
Waxing Crescent, 3% of the Moon is Illuminated
Nov 7
Waxing Crescent
Nov 13
First Quarter
Nov 21
Full
Nov 28
Last Quarter
Dec 5
New

Hourly Weather History & Observations

Time (MST) Temp. Windchill Dew Point Humidity Pressure Visibility Wind Dir Wind Speed Gust Speed Precip Events Conditions
5:00 AM 24 °F - 22 °F 91% 29.71 in 15 mi NW 4.6 mph - -  
5:00 AM 23.0 °F 17.0 °F 23.0 °F 100% 29.71 in 15.0 mi NW 4.6 mph - N/A   Clear
6:00 AM 24.8 °F 20.5 °F 23.0 °F 93% 29.70 in 15.0 mi WNW 3.5 mph - N/A   Clear
7:00 AM 28.4 °F 24.6 °F 24.8 °F 86% 29.68 in 15.0 mi NNW 3.5 mph - N/A   Mostly Cloudy
8:00 AM 24.8 °F 20.5 °F 21.2 °F 86% 29.69 in 30.0 mi North 3.5 mph - N/A   Mostly Cloudy
9:00 AM 28.4 °F 24.6 °F 26.6 °F 93% 29.69 in 30.0 mi NW 3.5 mph - N/A   Mostly Cloudy
10:00 AM 39.2 °F - 33.8 °F 81% 29.68 in 30.0 mi NNW 2.3 mph - N/A   Mostly Cloudy
11:00 AM 44 °F - 35 °F 61% 29.64 in 28 mi North 2.3 mph - -   Scattered Clouds
11:00 AM 42.8 °F - 35.6 °F 76% 29.64 in 30.0 mi Calm Calm - N/A   Mostly Cloudy
12:00 PM 53.6 °F - 37.4 °F 54% 29.63 in 30.0 mi Calm Calm - N/A   Mostly Cloudy
1:00 PM 51.8 °F - 37.4 °F 58% 29.62 in 30.0 mi NNE 2.3 mph - N/A   Mostly Cloudy
2:00 PM 55.4 °F - 35.6 °F 47% 29.59 in 30.0 mi North 4.6 mph - N/A   Mostly Cloudy
4:00 PM 51.8 °F - 35.6 °F 54% 29.62 in 30.0 mi WNW 18.4 mph 24.2 mph N/A   Mostly Cloudy
5:00 PM 48 °F - 34 °F 46% 29.68 in 28 mi West 15.0 mph - -   Overcast
5:00 PM 48.2 °F - 33.8 °F 58% 29.68 in 30.0 mi West 15.0 mph - N/A   Overcast
6:00 PM 48.2 °F - 35.6 °F 62% 29.68 in 15.0 mi WNW 12.7 mph 19.6 mph N/A   Mostly Cloudy
8:00 PM 39.2 °F 31.6 °F 30.2 °F 70% 29.75 in 15.0 mi North 12.7 mph - N/A   Overcast
9:00 PM 39.2 °F 35.0 °F 30.2 °F 70% 29.79 in 15.0 mi NNW 5.8 mph - N/A   Overcast
10:00 PM 41.0 °F 34.3 °F 30.2 °F 65% 29.81 in 15.0 mi NW 11.5 mph - N/A   Overcast